Weather in Phan Rang–Thap Cham

Vietnam     11°33′50″N   109°00′38″E
temp.,
°C
wind,
m/s
gust,
m/s
humid.,
%
clouds,
%
prec.,
mm/h
press.,
hPa
HPBL,
m
28 september, tue
tue2801:00+25nnw238874 0.0 1009111
04:00+24nw229013 0.0 100883
07:00+26nnw228230 0.0 1010189
10:00+30ne125884 0.0 1010721
13:00+31ese5361100 0.0 1007921
16:00+29e436911 0.0 1006703
19:00+26n228786 0.9 1008110
22:00+25nnw228896 0.1 100994
29 september, wed
wed2901:00+25nw228993 0.1 100871
04:00+24nw228978 0.0 100765
07:00+26nw22825 0.0 1009165
10:00+30ese116616 0.0 1009726
13:00+30ese536824 0.4 1007921
16:00+29ene437732 1.4 1006473
19:00+26nne238819 5.6 1008157
22:00+25nw228973 1.2 1010109
30 september, thu
thu3001:00+25nw229025 1.2 100874
04:00+24nw2290100 0.0 100869
07:00+26nw228418 0.0 1010153
10:00+30ene11655 0.0 1010733
13:00+30e546725 0.1 1007881
16:00+29e44738 0.6 1007664
19:00+26ne238540 1.6 1009208
22:00+25nnw228945 0.1 101093
1 october, fri
fri101:00+25nw11909 0.1 100965
04:00+24nw229081 0.0 100868
07:00+26nw228674 0.0 1010164
10:00+30ese116655 0.1 1010719
13:00+30se436925 0.9 1008887
16:00+29se327489 1.0 1007677
19:00+26s238574 2.7 1009149
22:00+25wnw239013 1.0 101091
2 october, sat
sat201:00+24wnw229312 3.5 100967
04:00+24nw229022 0.0 100970
07:00+26nw228423 0.0 1010149
10:00+29se116857 0.1 1011689
13:00+30se536693 0.3 1008933
16:00+29se337157 0.6 1007683
19:00+27sse118049 0.8 1009207
22:00+25wnw118544 0.1 101073